Location: Newark
(43.0000°N, 1.6781°W)
Time: 11:11:42
(UTC+00:00)

Explorer 7 - Pass Details

Date: 28 April 2021
Orbit: 484 x 677 km, 50.3° (Epoch: 07 May)

Event Time Altitude Azimuth Distance (km) Brightness Sun altitude
Rises 17:46:39 0° 254° (WSW) 2,559 11.6 12.9°
Reaches altitude 10° 17:48:50 10° 260° (W) 1,695 11.1 12.5°
Maximum altitude 17:52:34 51° 337° (NNW) 648 7.7 11.8°
Drops below altitude 10° 17:56:31 10° 55° (NE) 1,783 9.0 11.1°
Sets 17:58:51 0° 60° (ENE) 2,710 9.9 10.7°
